Find Starlink 32773

NORAD ID: 62571 Int'l Des: 2025-006 Owner: SPXS Country: US Constellation: starlink operational
LEOCIRCULAR

Live Position

Loading 3D Globe...

About Starlink 32773

Description loading...

Upcoming Passes

Passes for default location (London). Set your location on the main map for personalized predictions.

Altitude History

Loading altitude history...

Two-Line Element Set

1 62571U 25006T 26124.00157860 .00011961 00000-0 44344-3 0 9996
2 62571 43.0034 340.0532 0001487 275.4966 84.5716 15.27582247 73322
Epoch: May 4, 2026 • Age: 10 hours

Current Status

Altitude 482.4 km
Velocity 7.63 km/s
Sub-Earth Point 11.07°N, 130.81°E
Launch Date Jan 10, 2025
Age 1.3 years
Type internet

Technical Details

Classification Payload
Mass 730.00 kg
Dry Mass 700.00 kg
Total Mass 730.00 kg
Length 0.30 m
Diameter 4.10 m
Span 29.00 m
Shape Box + pan
Manufacturer SPXS
Bus Type Starlink V2M
Phase Status In Orbit
Owner/State SPXS/US

Most Searched